Aswan, Egypt

12:10 PM EET on January 23, 2018 (GMT +0200)
Aswan

Weather History for HESN - March, 2014

Change the Weather History Date:

Friday, March 7, 2014

  Actual Average Record
Temperature  
Mean Temperature 82 °F -  
Max Temperature 98 °F 84 °F 98 °F (2008)
Min Temperature 66 °F 60 °F 53 °F (2003)
Cooling Degree Days 17    
Growing Degree Days 32 (Base 50)    
Moisture  
Dew Point 28 °F    
Average Humidity 14    
Maximum Humidity 22    
Minimum Humidity 4    
Precipitation  
Precipitation 0.00 in 0.00 in - ()
Sea Level Pressure  
Sea Level Pressure 29.84 in    
Wind  
Wind Speed 5 mph ()    
Max Wind Speed 10 mph    
Max Gust Speed -    
Visibility 5.2 miles    
Events      
Averages and records for this station are not official NWS values.
T = Trace of Precipitation, MM = Missing Value Source: Averaged Metar Reports

Daily Weather History Graph

Daily Weather History Graph

Search for Another Location

Airport or City:

Trip Planner

Search our weather history database for the weather conditions in past years. The results will help you decide how hot, cold, wet, or windy it might be!

Date:

Astronomy

Mar. 07, 2014 Rise Set
Actual Time 6:05 AM EET 5:54 PM EET
Civil Twilight 5:43 AM EET 6:17 PM EET
Nautical Twilight 5:16 AM EET 6:43 PM EET
Astronomical Twilight 4:50 AM EET 7:09 PM EET
Moon 10:21 AM EET (3/7) 11:55 PM EET (3/7)
Length of Visible Light 12h 33m
Length of Day
11h 48m
Waxing Crescent, 39% of the Moon is Illuminated
Mar 7
Waxing Crescent
Mar 8
First Quarter
Mar 16
Full
Mar 24
Last Quarter
Mar 30
New

Hourly Weather History & Observations

Time (EET) Temp. Dew Point Humidity Pressure Visibility Wind Dir Wind Speed Gust Speed Precip Events Conditions
12:00 AM 78.8 °F 30.2 °F 17% 29.92 in - East 6.9 mph - N/A   Clear
1:00 AM 75.2 °F 33.8 °F 22% 29.89 in - East 3.5 mph - N/A   Clear
2:00 AM 72 °F 30 °F 12% 29.88 in 6 mi ESE 4.6 mph - -  
2:00 AM 71.6 °F 30.2 °F 22% 29.89 in - ESE 4.6 mph - N/A   Clear
3:00 AM 71.6 °F 24.8 °F 17% 29.89 in - West 5.8 mph - N/A   Clear
4:00 AM 69.8 °F 23.0 °F 17% 29.89 in - NW 3.5 mph - N/A   Clear
5:00 AM 68 °F 26 °F 11% 29.87 in 6 mi North 4.6 mph - -  
5:00 AM 68.0 °F 24.8 °F 20% 29.86 in - North 4.6 mph - N/A   Clear
6:00 AM 66.2 °F 24.8 °F 21% 29.89 in - WNW 2.3 mph - N/A   Clear
7:00 AM 68.0 °F 24.8 °F 20% 29.92 in - NNW 3.5 mph - N/A   Clear
8:00 AM 72 °F 28 °F 10% 29.89 in 5 mi NNE 4.6 mph - -   Haze
8:00 AM 71.6 °F 26.6 °F 19% 29.92 in 5.0 mi NNE 4.6 mph - N/A   Unknown
9:00 AM 80.6 °F 24.8 °F 13% 29.92 in 5.0 mi East 6.9 mph - N/A   Unknown
10:00 AM 86.0 °F 37.4 °F 18% 29.92 in 5.0 mi ESE 10.4 mph - N/A   Unknown
11:00 AM 90 °F 23 °F 4% 29.86 in 5 mi SE 8.1 mph - -   Haze
11:00 AM 89.6 °F 41.0 °F 18% 29.89 in 5.0 mi SE 8.1 mph - N/A   Unknown
12:00 PM 91.4 °F 21.2 °F 8% 29.86 in 5.0 mi SSE 8.1 mph - N/A   Unknown
1:00 PM 95.0 °F 17.6 °F 6% 29.83 in 5.0 mi SSE 9.2 mph - N/A   Unknown
2:00 PM 95 °F 46 °F 11% 29.76 in 5 mi South 5.8 mph - -   Haze
2:00 PM 95.0 °F 17.6 °F 6% 29.80 in 5.0 mi South 5.8 mph - N/A   Unknown
4:00 PM 96.8 °F 15.8 °F 5% 29.77 in 5.0 mi South 6.9 mph - N/A   Unknown
5:00 PM 95 °F 21 °F 4% 29.74 in 5 mi South 8.1 mph - -   Haze
5:00 PM 95.0 °F 21.2 °F 7% 29.77 in 5.0 mi South 8.1 mph - N/A   Unknown
6:00 PM 91.4 °F 32.0 °F 12% 29.77 in 5.0 mi SSE 5.8 mph - N/A   Unknown
7:00 PM 84.2 °F 41.0 °F 22% 29.77 in 5.0 mi ESE 3.5 mph - N/A   Unknown
8:00 PM 83 °F 35 °F 10% 29.76 in 6 mi SSE 6.9 mph - -  
8:00 PM 82.4 °F 35.6 °F 19% 29.77 in - SSE 6.9 mph - N/A   Clear
9:00 PM 82.4 °F 30.2 °F 15% 29.80 in - South 3.5 mph - N/A   Clear
10:00 PM 78.8 °F 28.4 °F 16% 29.80 in - ESE 1.2 mph - N/A   Clear
11:00 PM 79 °F 29 °F 8% 29.77 in 6 mi South 5.8 mph - -  
11:00 PM 78.8 °F 28.4 °F 16% 29.80 in - South 5.8 mph - N/A   Clear